iso_date,epoch_date,Year,Hour,Min,DOY,POS_DOY,Lat,Lon,BP,Ts,Ta,has_bp,has_ts,has_ta,BuoyID,Buoy_Type,Buoy_Owner,Logistics,Hemisphere
2013-05-05T00:00:00Z,1367712000,2013,0,0,125.0,125.0,82.51146,-62.3286,1020.5,-999.00,7.0,yes,no,yes,300234011096790,ICE_CANISTER,unknown,unknown,North
2013-05-05T01:00:28Z,1367715629,2013,1,0,125.042,125.042,82.51146,-62.3286,1020.4,-999.00,2.4,yes,no,yes,300234011096790,ICE_CANISTER,unknown,unknown,North
2013-05-05T01:59:31Z,1367719171,2013,2,0,125.083,125.083,82.51146,-62.3286,1020.2,-999.00,1.9,yes,no,yes,300234011096790,ICE_CANISTER,unknown,unknown,North
2013-05-05T03:00:00Z,1367722800,2013,3,0,125.125,125.125,82.51146,-62.32878,1020.1,-999.00,0.9,yes,no,yes,300234011096790,ICE_CANISTER,unknown,unknown,North
2013-05-05T04:00:28Z,1367726429,2013,4,0,125.167,125.167,82.51146,-62.32878,1019.8,-999.00,-1.0,yes,no,yes,300234011096790,ICE_CANISTER,unknown,unknown,North
2013-05-05T04:59:31Z,1367729971,2013,5,0,125.208,125.208,82.51146,-62.32878,1019.6,-999.00,-4.7,yes,no,yes,300234011096790,ICE_CANISTER,unknown,unknown,North
2013-05-05T06:00:00Z,1367733600,2013,6,0,125.25,125.25,82.51146,-62.3286,1019.5,-999.00,-4.6,yes,no,yes,300234011096790,ICE_CANISTER,unknown,unknown,North
2013-05-05T07:00:28Z,1367737229,2013,7,0,125.292,125.292,82.51146,-62.3286,1019.6,-999.00,-2.2,yes,no,yes,300234011096790,ICE_CANISTER,unknown,unknown,North
2013-05-05T07:59:31Z,1367740771,2013,8,0,125.333,125.333,82.51146,-62.3286,1019.3,-999.00,-3.2,yes,no,yes,300234011096790,ICE_CANISTER,unknown,unknown,North
2013-05-05T09:00:00Z,1367744400,2013,9,0,125.375,125.375,82.51146,-62.3286,1019.1,-999.00,-5.0,yes,no,yes,300234011096790,ICE_CANISTER,unknown,unknown,North
2013-05-05T10:00:28Z,1367748029,2013,10,0,125.417,125.417,82.51146,-62.3286,1019.0,-999.00,0.0,yes,no,yes,300234011096790,ICE_CANISTER,unknown,unknown,North
2013-05-05T10:59:31Z,1367751571,2013,11,0,125.458,125.458,82.51146,-62.3286,1018.5,-999.00,7.6,yes,no,yes,300234011096790,ICE_CANISTER,unknown,unknown,North
2013-05-05T12:00:00Z,1367755200,2013,12,0,125.5,125.5,82.51146,-62.3286,1018.3,-999.00,11.0,yes,no,yes,300234011096790,ICE_CANISTER,unknown,unknown,North
2013-05-05T13:00:28Z,1367758829,2013,13,0,125.542,125.542,82.51146,-62.3286,1018.3,-999.00,12.0,yes,no,yes,300234011096790,ICE_CANISTER,unknown,unknown,North
2013-05-05T13:59:31Z,1367762371,2013,14,0,125.583,125.583,82.51146,-62.3286,1017.7,-999.00,13.5,yes,no,yes,300234011096790,ICE_CANISTER,unknown,unknown,North
2013-05-05T15:00:00Z,1367766000,2013,15,0,125.625,125.625,82.51146,-62.32878,1017.6,-999.00,13.0,yes,no,yes,300234011096790,ICE_CANISTER,unknown,unknown,North
2013-05-05T16:00:28Z,1367769629,2013,16,0,125.667,125.667,82.51146,-62.32878,1017.2,-999.00,13.6,yes,no,yes,300234011096790,ICE_CANISTER,unknown,unknown,North
2013-05-05T16:59:31Z,1367773171,2013,17,0,125.708,125.708,82.51146,-62.32878,1016.9,-999.00,12.7,yes,no,yes,300234011096790,ICE_CANISTER,unknown,unknown,North
2013-05-05T18:00:00Z,1367776800,2013,18,0,125.75,125.75,82.51146,-62.32878,1016.8,-999.00,11.1,yes,no,yes,300234011096790,ICE_CANISTER,unknown,unknown,North
2013-05-05T19:00:28Z,1367780429,2013,19,0,125.792,125.792,82.51146,-62.32878,1016.5,-999.00,11.0,yes,no,yes,300234011096790,ICE_CANISTER,unknown,unknown,North
2013-05-05T19:59:31Z,1367783971,2013,20,0,125.833,125.833,82.51146,-62.32878,1016.3,-999.00,10.6,yes,no,yes,300234011096790,ICE_CANISTER,unknown,unknown,North
2013-05-05T21:00:00Z,1367787600,2013,21,0,125.875,125.875,82.51146,-62.3286,1016.0,-999.00,10.2,yes,no,yes,300234011096790,ICE_CANISTER,unknown,unknown,North
2013-05-05T22:00:28Z,1367791229,2013,22,0,125.917,125.917,82.51146,-62.3286,1015.9,-999.00,9.9,yes,no,yes,300234011096790,ICE_CANISTER,unknown,unknown,North
2013-05-05T22:59:31Z,1367794771,2013,23,0,125.958,125.958,82.51146,-62.3286,1015.5,-999.00,5.5,yes,no,yes,300234011096790,ICE_CANISTER,unknown,unknown,North
2013-05-06T00:00:00Z,1367798400,2013,0,0,126.0,126.0,82.51146,-62.3286,1015.5,-999.00,3.8,yes,no,yes,300234011096790,ICE_CANISTER,unknown,unknown,North
2013-05-06T01:00:28Z,1367802029,2013,1,0,126.042,126.042,82.51146,-62.3286,1015.2,-999.00,0.8,yes,no,yes,300234011096790,ICE_CANISTER,unknown,unknown,North
2013-05-06T01:59:31Z,1367805571,2013,2,0,126.083,126.083,82.51146,-62.3286,1015.0,-999.00,-1.1,yes,no,yes,300234011096790,ICE_CANISTER,unknown,unknown,North
2013-05-06T03:00:00Z,1367809200,2013,3,0,126.125,126.125,82.51146,-62.32878,1014.7,-999.00,-1.9,yes,no,yes,300234011096790,ICE_CANISTER,unknown,unknown,North
2013-05-06T04:00:28Z,1367812829,2013,4,0,126.167,126.167,82.51146,-62.32878,1014.5,-999.00,-2.4,yes,no,yes,300234011096790,ICE_CANISTER,unknown,unknown,North
2013-05-06T04:59:31Z,1367816371,2013,5,0,126.208,126.208,82.51146,-62.32878,1014.2,-999.00,-2.5,yes,no,yes,300234011096790,ICE_CANISTER,unknown,unknown,North
2013-05-06T06:00:00Z,1367820000,2013,6,0,126.25,126.25,82.51146,-62.32878,1014.1,-999.00,-10.1,yes,no,yes,300234011096790,ICE_CANISTER,unknown,unknown,North
2013-05-06T07:00:28Z,1367823629,2013,7,0,126.292,126.292,82.51146,-62.32878,1014.1,-999.00,-12.0,yes,no,yes,300234011096790,ICE_CANISTER,unknown,unknown,North
2013-05-06T07:59:31Z,1367827171,2013,8,0,126.333,126.333,82.51146,-62.32878,1014.0,-999.00,-11.4,yes,no,yes,300234011096790,ICE_CANISTER,unknown,unknown,North
2013-05-06T09:00:00Z,1367830800,2013,9,0,126.375,126.375,82.51146,-62.3286,1013.8,-999.00,-9.7,yes,no,yes,300234011096790,ICE_CANISTER,unknown,unknown,North
2013-05-06T10:00:28Z,1367834429,2013,10,0,126.417,126.417,82.51146,-62.3286,1013.7,-999.00,-9.7,yes,no,yes,300234011096790,ICE_CANISTER,unknown,unknown,North
2013-05-06T10:59:31Z,1367837971,2013,11,0,126.458,126.458,82.51146,-62.3286,1013.8,-999.00,-7.5,yes,no,yes,300234011096790,ICE_CANISTER,unknown,unknown,North
2013-05-06T12:00:00Z,1367841600,2013,12,0,126.5,126.5,82.51146,-62.3286,1013.6,-999.00,-5.9,yes,no,yes,300234011096790,ICE_CANISTER,unknown,unknown,North
2013-05-06T13:00:28Z,1367845229,2013,13,0,126.542,126.542,82.51146,-62.3286,1013.5,-999.00,-5.5,yes,no,yes,300234011096790,ICE_CANISTER,unknown,unknown,North
2013-05-06T13:59:31Z,1367848771,2013,14,0,126.583,126.583,82.51146,-62.3286,1013.4,-999.00,-5.4,yes,no,yes,300234011096790,ICE_CANISTER,unknown,unknown,North
2013-05-06T15:00:00Z,1367852400,2013,15,0,126.625,126.625,82.51146,-62.3286,1013.1,-999.00,-3.5,yes,no,yes,300234011096790,ICE_CANISTER,unknown,unknown,North
2013-05-06T16:00:28Z,1367856029,2013,16,0,126.667,126.667,82.51146,-62.3286,1013.0,-999.00,-2.6,yes,no,yes,300234011096790,ICE_CANISTER,unknown,unknown,North
2013-05-06T16:59:31Z,1367859571,2013,17,0,126.708,126.708,82.51146,-62.3286,1013.0,-999.00,1.3,yes,no,yes,300234011096790,ICE_CANISTER,unknown,unknown,North
2013-05-06T18:00:00Z,1367863200,2013,18,0,126.75,126.75,82.51146,-62.3286,1012.9,-999.00,3.6,yes,no,yes,300234011096790,ICE_CANISTER,unknown,unknown,North
2013-05-06T19:00:28Z,1367866829,2013,19,0,126.792,126.792,82.51146,-62.3286,1012.9,-999.00,1.5,yes,no,yes,300234011096790,ICE_CANISTER,unknown,unknown,North
2013-05-06T19:59:31Z,1367870371,2013,20,0,126.833,126.833,82.51146,-62.3286,1012.9,-999.00,5.8,yes,no,yes,300234011096790,ICE_CANISTER,unknown,unknown,North
2013-05-06T21:00:00Z,1367874000,2013,21,0,126.875,126.875,82.51146,-62.3286,1012.6,-999.00,10.0,yes,no,yes,300234011096790,ICE_CANISTER,unknown,unknown,North
2013-05-06T22:00:28Z,1367877629,2013,22,0,126.917,126.917,82.51146,-62.3286,1012.5,-999.00,7.8,yes,no,yes,300234011096790,ICE_CANISTER,unknown,unknown,North
2013-05-06T22:59:31Z,1367881171,2013,23,0,126.958,126.958,82.51146,-62.3286,1012.4,-999.00,4.2,yes,no,yes,300234011096790,ICE_CANISTER,unknown,unknown,North
2013-05-07T00:00:00Z,1367884800,2013,0,0,127.0,127.0,82.51146,-62.3286,1012.1,-999.00,2.7,yes,no,yes,300234011096790,ICE_CANISTER,unknown,unknown,North
2013-05-07T01:00:28Z,1367888429,2013,1,0,127.042,127.042,82.51146,-62.3286,1011.8,-999.00,-4.2,yes,no,yes,300234011096790,ICE_CANISTER,unknown,unknown,North
2013-05-07T01:59:31Z,1367891971,2013,2,0,127.083,127.083,82.51146,-62.3286,1011.6,-999.00,-9.5,yes,no,yes,300234011096790,ICE_CANISTER,unknown,unknown,North
2013-05-07T03:00:00Z,1367895600,2013,3,0,127.125,127.125,82.51146,-62.3286,1011.1,-999.00,-10.7,yes,no,yes,300234011096790,ICE_CANISTER,unknown,unknown,North
2013-05-07T04:00:28Z,1367899229,2013,4,0,127.167,127.167,82.51146,-62.3286,1010.9,-999.00,-10.0,yes,no,yes,300234011096790,ICE_CANISTER,unknown,unknown,North
2013-05-07T04:59:31Z,1367902771,2013,5,0,127.208,127.208,82.51146,-62.3286,1010.3,-999.00,-12.0,yes,no,yes,300234011096790,ICE_CANISTER,unknown,unknown,North
2013-05-07T06:00:00Z,1367906400,2013,6,0,127.25,127.25,82.51146,-62.32878,1009.9,-999.00,-12.2,yes,no,yes,300234011096790,ICE_CANISTER,unknown,unknown,North
2013-05-07T07:00:28Z,1367910029,2013,7,0,127.292,127.292,82.51146,-62.32878,1009.5,-999.00,-10.6,yes,no,yes,300234011096790,ICE_CANISTER,unknown,unknown,North
2013-05-07T07:59:31Z,1367913571,2013,8,0,127.333,127.333,82.51146,-62.32878,1009.0,-999.00,-8.9,yes,no,yes,300234011096790,ICE_CANISTER,unknown,unknown,North
2013-05-07T09:00:00Z,1367917200,2013,9,0,127.375,127.375,82.51146,-62.32842,1008.6,-999.00,-7.9,yes,no,yes,300234011096790,ICE_CANISTER,unknown,unknown,North
2013-05-07T10:00:28Z,1367920829,2013,10,0,127.417,127.417,82.51146,-62.32842,1008.4,-999.00,-7.5,yes,no,yes,300234011096790,ICE_CANISTER,unknown,unknown,North
2013-05-07T10:59:31Z,1367924371,2013,11,0,127.458,127.458,82.51146,-62.32842,1007.9,-999.00,-6.2,yes,no,yes,300234011096790,ICE_CANISTER,unknown,unknown,North
2013-05-07T12:00:00Z,1367928000,2013,12,0,127.5,127.5,82.51146,-62.32878,1007.3,-999.00,-4.2,yes,no,yes,300234011096790,ICE_CANISTER,unknown,unknown,North
2013-05-07T13:00:28Z,1367931629,2013,13,0,127.542,127.542,82.51146,-62.32878,1007.0,-999.00,0.3,yes,no,yes,300234011096790,ICE_CANISTER,unknown,unknown,North
2013-05-07T13:59:31Z,1367935171,2013,14,0,127.583,127.583,82.51146,-62.32878,1006.5,-999.00,0.0,yes,no,yes,300234011096790,ICE_CANISTER,unknown,unknown,North
2013-05-07T15:00:00Z,1367938800,2013,15,0,127.625,127.625,82.51146,-62.3286,1006.0,-999.00,1.1,yes,no,yes,300234011096790,ICE_CANISTER,unknown,unknown,North
2013-05-07T16:00:28Z,1367942429,2013,16,0,127.667,127.667,82.51146,-62.3286,1005.6,-999.00,4.9,yes,no,yes,300234011096790,ICE_CANISTER,unknown,unknown,North
2013-05-07T16:59:31Z,1367945971,2013,17,0,127.708,127.708,82.51146,-62.3286,1005.3,-999.00,3.9,yes,no,yes,300234011096790,ICE_CANISTER,unknown,unknown,North
2013-05-07T18:00:00Z,1367949600,2013,18,0,127.75,127.75,82.51146,-62.3286,1005.0,-999.00,8.0,yes,no,yes,300234011096790,ICE_CANISTER,unknown,unknown,North
2013-05-07T19:00:28Z,1367953229,2013,19,0,127.792,127.792,82.51146,-62.3286,1004.4,-999.00,8.3,yes,no,yes,300234011096790,ICE_CANISTER,unknown,unknown,North
2013-05-07T19:59:31Z,1367956771,2013,20,0,127.833,127.833,82.51146,-62.3286,1004.5,-999.00,0.3,yes,no,yes,300234011096790,ICE_CANISTER,unknown,unknown,North
2013-05-07T21:00:00Z,1367960400,2013,21,0,127.875,127.875,82.51146,-62.3286,1004.2,-999.00,-1.3,yes,no,yes,300234011096790,ICE_CANISTER,unknown,unknown,North
2013-05-07T22:00:28Z,1367964029,2013,22,0,127.917,127.917,82.51146,-62.3286,1004.2,-999.00,1.2,yes,no,yes,300234011096790,ICE_CANISTER,unknown,unknown,North
2013-05-07T22:59:31Z,1367967571,2013,23,0,127.958,127.958,82.51146,-62.3286,1004.2,-999.00,-0.2,yes,no,yes,300234011096790,ICE_CANISTER,unknown,unknown,North
2013-05-08T00:00:00Z,1367971200,2013,0,0,128.0,128.0,82.51146,-62.3286,1004.2,-999.00,-10.9,yes,no,yes,300234011096790,ICE_CANISTER,unknown,unknown,North
2013-05-08T01:00:28Z,1367974829,2013,1,0,128.042,128.042,82.51146,-62.3286,1004.2,-999.00,-12.9,yes,no,yes,300234011096790,ICE_CANISTER,unknown,unknown,North
2013-05-08T01:59:31Z,1367978371,2013,2,0,128.083,128.083,82.51146,-62.3286,1004.4,-999.00,-14.5,yes,no,yes,300234011096790,ICE_CANISTER,unknown,unknown,North
2013-05-08T03:00:00Z,1367982000,2013,3,0,128.125,128.125,82.51146,-62.32878,1004.4,-999.00,-14.6,yes,no,yes,300234011096790,ICE_CANISTER,unknown,unknown,North
2013-05-08T04:00:28Z,1367985629,2013,4,0,128.167,128.167,82.51146,-62.32878,1004.5,-999.00,-14.7,yes,no,yes,300234011096790,ICE_CANISTER,unknown,unknown,North
2013-05-08T04:59:31Z,1367989171,2013,5,0,128.208,128.208,82.51146,-62.32878,1004.5,-999.00,-14.7,yes,no,yes,300234011096790,ICE_CANISTER,unknown,unknown,North
2013-05-08T06:00:00Z,1367992800,2013,6,0,128.25,128.25,82.51146,-62.32878,1004.7,-999.00,-14.1,yes,no,yes,300234011096790,ICE_CANISTER,unknown,unknown,North
2013-05-08T07:00:28Z,1367996429,2013,7,0,128.292,128.292,82.51146,-62.32878,1004.9,-999.00,-12.7,yes,no,yes,300234011096790,ICE_CANISTER,unknown,unknown,North
2013-05-08T07:59:31Z,1367999971,2013,8,0,128.333,128.333,82.51146,-62.32878,1005.0,-999.00,-11.6,yes,no,yes,300234011096790,ICE_CANISTER,unknown,unknown,North
2013-05-08T09:00:00Z,1368003600,2013,9,0,128.375,128.375,82.51146,-62.32878,1005.2,-999.00,-9.6,yes,no,yes,300234011096790,ICE_CANISTER,unknown,unknown,North
2013-05-08T10:00:28Z,1368007229,2013,10,0,128.417,128.417,82.51146,-62.32878,1005.2,-999.00,-7.9,yes,no,yes,300234011096790,ICE_CANISTER,unknown,unknown,North
2013-05-08T10:59:31Z,1368010771,2013,11,0,128.458,128.458,82.51146,-62.32878,1005.1,-999.00,-6.8,yes,no,yes,300234011096790,ICE_CANISTER,unknown,unknown,North
2013-05-08T12:00:00Z,1368014400,2013,12,0,128.5,128.5,82.51146,-62.32878,1005.2,-999.00,-3.6,yes,no,yes,300234011096790,ICE_CANISTER,unknown,unknown,North
2013-05-08T13:00:28Z,1368018029,2013,13,0,128.542,128.542,82.51146,-62.32878,1005.2,-999.00,2.4,yes,no,yes,300234011096790,ICE_CANISTER,unknown,unknown,North
2013-05-08T13:59:31Z,1368021571,2013,14,0,128.583,128.583,82.51146,-62.32878,1005.2,-999.00,3.9,yes,no,yes,300234011096790,ICE_CANISTER,unknown,unknown,North
2013-05-08T15:00:00Z,1368025200,2013,15,0,128.625,128.625,82.51146,-62.3286,1005.0,-999.00,4.7,yes,no,yes,300234011096790,ICE_CANISTER,unknown,unknown,North
2013-05-08T16:00:28Z,1368028829,2013,16,0,128.667,128.667,82.51146,-62.3286,1005.0,-999.00,6.2,yes,no,yes,300234011096790,ICE_CANISTER,unknown,unknown,North
2013-05-08T16:59:31Z,1368032371,2013,17,0,128.708,128.708,82.51146,-62.3286,1004.8,-999.00,6.1,yes,no,yes,300234011096790,ICE_CANISTER,unknown,unknown,North
2013-05-08T18:00:00Z,1368036000,2013,18,0,128.75,128.75,82.51146,-62.3286,1004.9,-999.00,7.3,yes,no,yes,300234011096790,ICE_CANISTER,unknown,unknown,North
2013-05-08T19:00:28Z,1368039629,2013,19,0,128.792,128.792,82.51146,-62.3286,1005.0,-999.00,5.7,yes,no,yes,300234011096790,ICE_CANISTER,unknown,unknown,North
2013-05-08T19:59:31Z,1368043171,2013,20,0,128.833,128.833,82.51146,-62.3286,1005.2,-999.00,1.0,yes,no,yes,300234011096790,ICE_CANISTER,unknown,unknown,North
2013-05-08T21:00:00Z,1368046800,2013,21,0,128.875,128.875,82.51146,-62.32842,1005.6,-999.00,3.3,yes,no,yes,300234011096790,ICE_CANISTER,unknown,unknown,North
2013-05-08T22:00:28Z,1368050429,2013,22,0,128.917,128.917,82.51146,-62.32842,1005.8,-999.00,2.4,yes,no,yes,300234011096790,ICE_CANISTER,unknown,unknown,North
2013-05-08T22:59:31Z,1368053971,2013,23,0,128.958,128.958,82.51146,-62.32842,1006.1,-999.00,-2.9,yes,no,yes,300234011096790,ICE_CANISTER,unknown,unknown,North
2013-05-09T00:00:00Z,1368057600,2013,0,0,129.0,129.0,82.51146,-62.32878,1006.3,-999.00,-6.0,yes,no,yes,300234011096790,ICE_CANISTER,unknown,unknown,North
2013-05-09T01:00:28Z,1368061229,2013,1,0,129.042,129.042,82.51146,-62.32878,1006.6,-999.00,-8.2,yes,no,yes,300234011096790,ICE_CANISTER,unknown,unknown,North
2013-05-09T01:59:31Z,1368064771,2013,2,0,129.083,129.083,82.51146,-62.32878,1006.9,-999.00,-10.1,yes,no,yes,300234011096790,ICE_CANISTER,unknown,unknown,North
2013-05-09T03:00:00Z,1368068400,2013,3,0,129.125,129.125,82.51146,-62.32878,1007.2,-999.00,-11.7,yes,no,yes,300234011096790,ICE_CANISTER,unknown,unknown,North
2013-05-09T04:00:28Z,1368072029,2013,4,0,129.167,129.167,82.51146,-62.32878,1007.5,-999.00,-12.4,yes,no,yes,300234011096790,ICE_CANISTER,unknown,unknown,North
2013-05-09T04:59:31Z,1368075571,2013,5,0,129.208,129.208,82.51146,-62.32878,1007.8,-999.00,-12.6,yes,no,yes,300234011096790,ICE_CANISTER,unknown,unknown,North
2013-05-09T06:00:00Z,1368079200,2013,6,0,129.25,129.25,82.51146,-62.32878,1008.2,-999.00,-11.8,yes,no,yes,300234011096790,ICE_CANISTER,unknown,unknown,North
2013-05-09T07:00:28Z,1368082829,2013,7,0,129.292,129.292,82.51146,-62.32878,1008.4,-999.00,-11.4,yes,no,yes,300234011096790,ICE_CANISTER,unknown,unknown,North
2013-05-09T07:59:31Z,1368086371,2013,8,0,129.333,129.333,82.51146,-62.32878,1008.5,-999.00,-10.8,yes,no,yes,300234011096790,ICE_CANISTER,unknown,unknown,North
2013-05-09T09:00:00Z,1368090000,2013,9,0,129.375,129.375,82.51146,-62.3286,1008.6,-999.00,-10.1,yes,no,yes,300234011096790,ICE_CANISTER,unknown,unknown,North
2013-05-09T10:00:28Z,1368093629,2013,10,0,129.417,129.417,82.51146,-62.3286,1008.8,-999.00,-6.6,yes,no,yes,300234011096790,ICE_CANISTER,unknown,unknown,North
2013-05-09T10:59:31Z,1368097171,2013,11,0,129.458,129.458,82.51146,-62.3286,1009.0,-999.00,-3.7,yes,no,yes,300234011096790,ICE_CANISTER,unknown,unknown,North
2013-05-09T12:00:00Z,1368100800,2013,12,0,129.5,129.5,82.51146,-62.3286,1009.2,-999.00,-1.1,yes,no,yes,300234011096790,ICE_CANISTER,unknown,unknown,North
2013-05-09T13:00:28Z,1368104429,2013,13,0,129.542,129.542,82.51146,-62.3286,1009.2,-999.00,-1.0,yes,no,yes,300234011096790,ICE_CANISTER,unknown,unknown,North
2013-05-09T13:59:31Z,1368107971,2013,14,0,129.583,129.583,82.51146,-62.3286,1009.3,-999.00,-1.6,yes,no,yes,300234011096790,ICE_CANISTER,unknown,unknown,North
2013-05-09T15:00:00Z,1368111600,2013,15,0,129.625,129.625,82.51146,-62.3286,1009.2,-999.00,3.2,yes,no,yes,300234011096790,ICE_CANISTER,unknown,unknown,North
2013-05-09T16:00:28Z,1368115229,2013,16,0,129.667,129.667,82.51146,-62.3286,1009.3,-999.00,1.9,yes,no,yes,300234011096790,ICE_CANISTER,unknown,unknown,North
2013-05-09T16:59:31Z,1368118771,2013,17,0,129.708,129.708,82.51146,-62.3286,1008.9,-999.00,-0.6,yes,no,yes,300234011096790,ICE_CANISTER,unknown,unknown,North
2013-05-09T18:00:00Z,1368122400,2013,18,0,129.75,129.75,82.51146,-62.3286,1008.8,-999.00,2.3,yes,no,yes,300234011096790,ICE_CANISTER,unknown,unknown,North
2013-05-09T19:00:28Z,1368126029,2013,19,0,129.792,129.792,82.51146,-62.3286,1008.7,-999.00,-0.5,yes,no,yes,300234011096790,ICE_CANISTER,unknown,unknown,North
2013-05-09T19:59:31Z,1368129571,2013,20,0,129.833,129.833,82.51146,-62.3286,1008.9,-999.00,-1.6,yes,no,yes,300234011096790,ICE_CANISTER,unknown,unknown,North
2013-05-09T21:00:00Z,1368133200,2013,21,0,129.875,129.875,82.51146,-62.32878,1008.7,-999.00,-3.1,yes,no,yes,300234011096790,ICE_CANISTER,unknown,unknown,North
2013-05-09T22:00:28Z,1368136829,2013,22,0,129.917,129.917,82.51146,-62.32878,1008.6,-999.00,-5.8,yes,no,yes,300234011096790,ICE_CANISTER,unknown,unknown,North
2013-05-09T22:59:31Z,1368140371,2013,23,0,129.958,129.958,82.51146,-62.32878,1008.7,-999.00,-8.4,yes,no,yes,300234011096790,ICE_CANISTER,unknown,unknown,North
2013-05-10T00:00:00Z,1368144000,2013,0,0,130.0,130.0,82.51146,-62.3286,1008.7,-999.00,-10.3,yes,no,yes,300234011096790,ICE_CANISTER,unknown,unknown,North
2013-05-10T01:00:28Z,1368147629,2013,1,0,130.042,130.042,82.51146,-62.3286,1008.7,-999.00,-11.8,yes,no,yes,300234011096790,ICE_CANISTER,unknown,unknown,North
2014-05-21T00:00:00Z,1400630400,2014,0,0,141.0,-999.0,85.05126,-56.91798,1010.7,-999.00,-7.2,yes,no,yes,300234011096790,ICE_CANISTER,unknown,unknown,North
2014-05-21T01:00:28Z,1400634029,2014,1,0,141.042,-999.0,85.05126,-56.91798,1011.1,-999.00,-7.1,yes,no,yes,300234011096790,ICE_CANISTER,unknown,unknown,North
2014-05-21T01:59:31Z,1400637571,2014,2,0,141.083,-999.0,85.05126,-56.91798,1011.4,-999.00,-7.2,yes,no,yes,300234011096790,ICE_CANISTER,unknown,unknown,North
2014-05-21T03:00:00Z,1400641200,2014,3,0,141.125,-999.0,85.05234,-56.7666,1011.6,-999.00,-7.2,yes,no,yes,300234011096790,ICE_CANISTER,unknown,unknown,North
2014-05-21T04:00:28Z,1400644829,2014,4,0,141.167,-999.0,85.05234,-56.7666,1011.6,-999.00,-7.4,yes,no,yes,300234011096790,ICE_CANISTER,unknown,unknown,North
2014-05-21T04:59:31Z,1400648371,2014,5,0,141.208,-999.0,85.05234,-56.7666,1011.6,-999.00,-7.5,yes,no,yes,300234011096790,ICE_CANISTER,unknown,unknown,North
2014-05-21T06:00:00Z,1400652000,2014,6,0,141.25,-999.0,85.05432,-56.61216,1011.5,-999.00,-7.6,yes,no,yes,300234011096790,ICE_CANISTER,unknown,unknown,North
2014-05-21T07:00:28Z,1400655629,2014,7,0,141.292,-999.0,85.05432,-56.61216,1011.4,-999.00,-7.6,yes,no,yes,300234011096790,ICE_CANISTER,unknown,unknown,North
2014-05-21T07:59:31Z,1400659171,2014,8,0,141.333,-999.0,85.05432,-56.61216,1011.3,-999.00,-7.8,yes,no,yes,300234011096790,ICE_CANISTER,unknown,unknown,North
2014-05-21T09:00:00Z,1400662800,2014,9,0,141.375,-999.0,85.05684,-56.46024,1011.1,-999.00,-7.8,yes,no,yes,300234011096790,ICE_CANISTER,unknown,unknown,North
2014-05-21T10:00:28Z,1400666429,2014,10,0,141.417,-999.0,85.05684,-56.46024,1011.1,-999.00,-7.8,yes,no,yes,300234011096790,ICE_CANISTER,unknown,unknown,North
2014-05-21T10:59:31Z,1400669971,2014,11,0,141.458,-999.0,85.05684,-56.46024,1011.0,-999.00,-7.7,yes,no,yes,300234011096790,ICE_CANISTER,unknown,unknown,North
2014-05-21T12:00:00Z,1400673600,2014,12,0,141.5,-999.0,85.05936,-56.30742,1010.9,-999.00,-7.7,yes,no,yes,300234011096790,ICE_CANISTER,unknown,unknown,North
2014-05-21T13:00:28Z,1400677229,2014,13,0,141.542,-999.0,85.05936,-56.30742,1010.9,-999.00,-7.6,yes,no,yes,300234011096790,ICE_CANISTER,unknown,unknown,North
2014-05-21T13:59:31Z,1400680771,2014,14,0,141.583,-999.0,85.05936,-56.30742,1010.7,-999.00,-7.6,yes,no,yes,300234011096790,ICE_CANISTER,unknown,unknown,North
2014-05-21T15:00:00Z,1400684400,2014,15,0,141.625,-999.0,85.06188,-56.14362,1010.9,-999.00,-7.4,yes,no,yes,300234011096790,ICE_CANISTER,unknown,unknown,North
2014-05-21T16:00:28Z,1400688029,2014,16,0,141.667,-999.0,85.06188,-56.14362,1010.6,-999.00,-7.3,yes,no,yes,300234011096790,ICE_CANISTER,unknown,unknown,North
2014-05-21T16:59:31Z,1400691571,2014,17,0,141.708,-999.0,85.06188,-56.14362,1010.6,-999.00,-7.0,yes,no,yes,300234011096790,ICE_CANISTER,unknown,unknown,North
2014-05-21T18:00:00Z,1400695200,2014,18,0,141.75,-999.0,85.06368,-55.96704,1010.6,-999.00,-6.9,yes,no,yes,300234011096790,ICE_CANISTER,unknown,unknown,North
2014-05-21T19:00:28Z,1400698829,2014,19,0,141.792,-999.0,85.06368,-55.96704,1010.5,-999.00,-7.1,yes,no,yes,300234011096790,ICE_CANISTER,unknown,unknown,North
2014-05-21T19:59:31Z,1400702371,2014,20,0,141.833,-999.0,85.06368,-55.96704,1010.7,-999.00,-7.1,yes,no,yes,300234011096790,ICE_CANISTER,unknown,unknown,North
2014-05-21T21:00:00Z,1400706000,2014,21,0,141.875,-999.0,85.06566,-55.79928,1010.7,-999.00,-7.0,yes,no,yes,300234011096790,ICE_CANISTER,unknown,unknown,North
2014-05-21T22:00:28Z,1400709629,2014,22,0,141.917,-999.0,85.06566,-55.79928,1010.8,-999.00,-7.0,yes,no,yes,300234011096790,ICE_CANISTER,unknown,unknown,North
2014-05-21T22:59:31Z,1400713171,2014,23,0,141.958,-999.0,85.06566,-55.79928,1010.8,-999.00,-6.9,yes,no,yes,300234011096790,ICE_CANISTER,unknown,unknown,North
2014-05-22T00:00:00Z,1400716800,2014,0,0,142.0,-999.0,85.06692,-55.63836,1011.0,-999.00,-6.8,yes,no,yes,300234011096790,ICE_CANISTER,unknown,unknown,North
2014-05-22T01:00:28Z,1400720429,2014,1,0,142.042,-999.0,85.06692,-55.63836,1011.3,-999.00,-6.6,yes,no,yes,300234011096790,ICE_CANISTER,unknown,unknown,North
2014-05-22T01:59:31Z,1400723971,2014,2,0,142.083,-999.0,85.06692,-55.63836,1011.6,-999.00,-6.5,yes,no,yes,300234011096790,ICE_CANISTER,unknown,unknown,North
2014-05-22T03:00:00Z,1400727600,2014,3,0,142.125,-999.0,85.06674,-55.4643,1011.9,-999.00,-6.4,yes,no,yes,300234011096790,ICE_CANISTER,unknown,unknown,North
2014-05-22T04:00:28Z,1400731229,2014,4,0,142.167,-999.0,85.06674,-55.4643,1012.1,-999.00,-6.4,yes,no,yes,300234011096790,ICE_CANISTER,unknown,unknown,North